TimeEST,TemperatureF,Dew PointF,Humidity,Sea Level PressureIn,VisibilityMPH,Wind Direction,Wind SpeedMPH,Gust SpeedMPH,PrecipitationIn,Events,Conditions,WindDirDegrees,DateUTC
12:54 AM,45.0,27.0,49,29.90,10.0,WNW,11.5,-,N/A,,Overcast,300,2011-11-17 05:54:00
1:54 AM,44.1,28.0,53,29.92,10.0,West,6.9,-,N/A,,Overcast,280,2011-11-17 06:54:00
2:54 AM,43.0,23.0,45,29.94,10.0,NW,10.4,-,N/A,,Overcast,310,2011-11-17 07:54:00
3:54 AM,41.0,26.1,55,29.94,10.0,WNW,9.2,-,N/A,,Mostly Cloudy,290,2011-11-17 08:54:00
4:54 AM,39.9,26.1,58,29.95,10.0,West,4.6,-,N/A,,Clear,280,2011-11-17 09:54:00
5:54 AM,37.9,26.1,62,29.95,10.0,West,5.8,-,N/A,,Clear,280,2011-11-17 10:54:00
6:54 AM,37.9,28.0,68,29.96,10.0,West,4.6,-,N/A,,Clear,260,2011-11-17 11:54:00
7:54 AM,39.0,28.9,67,29.96,10.0,West,4.6,-,N/A,,Clear,280,2011-11-17 12:54:00
8:54 AM,39.9,28.9,65,29.97,10.0,WNW,6.9,-,N/A,,Clear,290,2011-11-17 13:54:00
9:54 AM,41.0,28.9,62,29.99,10.0,West,8.1,-,N/A,,Partly Cloudy,270,2011-11-17 14:54:00
10:54 AM,42.1,26.1,53,29.97,10.0,WNW,11.5,21.9,N/A,,Scattered Clouds,300,2011-11-17 15:54:00
11:54 AM,42.1,24.1,49,29.94,10.0,West,5.8,-,N/A,,Overcast,270,2011-11-17 16:54:00
12:54 PM,43.0,24.1,47,29.92,10.0,West,10.4,-,N/A,,Overcast,270,2011-11-17 17:54:00
1:54 PM,42.1,24.1,49,29.93,10.0,WNW,11.5,-,N/A,,Overcast,290,2011-11-17 18:54:00
2:54 PM,41.0,23.0,49,29.93,10.0,West,8.1,-,N/A,,Overcast,280,2011-11-17 19:54:00
3:54 PM,41.0,21.0,45,29.94,10.0,West,10.4,19.6,N/A,,Clear,270,2011-11-17 20:54:00
4:54 PM,39.9,21.0,47,29.96,10.0,West,5.8,-,N/A,,Scattered Clouds,260,2011-11-17 21:54:00
5:54 PM,37.9,21.0,51,29.99,10.0,WNW,8.1,-,N/A,,Partly Cloudy,300,2011-11-17 22:54:00
6:54 PM,37.0,24.1,59,30.02,10.0,West,9.2,-,N/A,,Clear,270,2011-11-17 23:54:00
7:54 PM,37.0,21.9,54,30.04,10.0,West,9.2,-,N/A,,Clear,270,2011-11-18 00:54:00
8:54 PM,35.1,21.9,59,30.05,10.0,West,8.1,-,N/A,,Clear,270,2011-11-18 01:54:00
9:54 PM,35.1,23.0,61,30.07,10.0,West,8.1,-,N/A,,Clear,270,2011-11-18 02:54:00
10:54 PM,34.0,21.0,59,30.09,10.0,West,8.1,-,N/A,,Clear,270,2011-11-18 03:54:00
11:54 PM,34.0,19.0,54,30.13,10.0,West,8.1,-,N/A,,Mostly Cloudy,270,2011-11-18 04:54:00